Change the Weather History Date:

Monday, December 2, 2013

  Actual Average (KSPI) Record (KSPI)
Temperature  
Mean Temperature 43 °F 35 °F  
Max Temperature 51 °F 43 °F 71 °F (1982)
Min Temperature 35 °F 27 °F 2 °F (1929)
Degree Days  
Heating Degree Days 22 30  
Month to date heating degree days 60  
Since 1 July heating degree days 1128  
Cooling Degree Days 0 0  
Month to date cooling degree days 0  
Year to date cooling degree days 1122  
Moisture  
Dew Point 38 °F    
Average Humidity 84    
Maximum Humidity 99    
Minimum Humidity 71    
Precipitation  
Precipitation 0.00 in 0.10 in 4.70 in (1982)
Month to date precipitation 0.20  
Year to date precipitation 35.11  
Snow  
Snow 0.00 in 0.10 in 2.80 in (1967)
Month to date snowfall 0.2  
Since 1 July snowfall 0.8  
Snow Depth -    
Sea Level Pressure  
Sea Level Pressure 29.78 in    
Wind  
Wind Speed 6 mph (ESE)    
Max Wind Speed 9 mph    
Max Gust Speed -    
Visibility 6 miles    
Events Fog    
T = Trace of Precipitation, MM = Missing Value Source: NWS Daily Summary

Daily Weather History Graph

Daily Weather History Graph

Search for Another Location

Airport or City:

Trip Planner

Search our weather history database for the weather conditions in past years. The results will help you decide how hot, cold, wet, or windy it might be!

Date:

Astronomy

Dec. 02, 2013 Rise Set
Actual Time 7:00 AM CST 4:36 PM CST
Civil Twilight 6:30 AM CST 5:05 PM CST
Nautical Twilight 5:57 AM CST 5:38 PM CST
Astronomical Twilight 5:25 AM CST 6:11 PM CST
Moon 6:25 AM CST (12/2) 4:38 PM CST (12/2)
Length of Visible Light 10h 35m
Length of Day
9h 35m
Waning Crescent, 0% of the Moon is Illuminated
Dec 2
Waning Crescent
Dec 2
New
Dec 9
First Quarter
Dec 17
Full
Dec 25
Last Quarter

Hourly Weather History & Observations

Time (CST) Temp. Windchill Dew Point Humidity Pressure Visibility Wind Dir Wind Speed Gust Speed Precip Events Conditions
12:15 AM 37.2 °F 31.9 °F 31.8 °F 81% 29.90 in 7.0 mi East 6.9 mph - N/A   Clear
12:35 AM 37.4 °F 33.8 °F 32.0 °F 81% 29.90 in 7.0 mi East 4.6 mph - N/A   Clear
12:55 AM 37.4 °F 33.8 °F 31.8 °F 80% 29.90 in 5.0 mi East 4.6 mph - N/A   Haze
1:15 AM 37.6 °F 34.0 °F 32.0 °F 80% 29.90 in 7.0 mi ENE 4.6 mph - N/A   Clear
1:35 AM 37.8 °F 34.2 °F 32.0 °F 80% 29.90 in 7.0 mi East 4.6 mph - N/A   Clear
1:55 AM 38.3 °F 35.9 °F 32.0 °F 78% 29.90 in 7.0 mi East 3.5 mph - N/A   Clear
2:15 AM 37.8 °F 35.3 °F 32.0 °F 80% 29.90 in 7.0 mi ENE 3.5 mph - N/A   Clear
2:35 AM 37.0 °F 33.3 °F 32.0 °F 82% 29.89 in 7.0 mi ENE 4.6 mph - N/A   Clear
2:55 AM 36.1 °F - 31.6 °F 84% 29.89 in 7.0 mi Calm Calm - N/A   Scattered Clouds
3:15 AM 36.7 °F 34.1 °F 32.0 °F 83% 29.88 in 7.0 mi ENE 3.5 mph - N/A   Mostly Cloudy
3:35 AM 35.8 °F 33.0 °F 31.8 °F 86% 29.88 in 7.0 mi ENE 3.5 mph - N/A   Mostly Cloudy
3:55 AM 35.8 °F 30.9 °F 31.8 °F 86% 29.87 in 5.0 mi East 5.8 mph - N/A   Mostly Cloudy
4:15 AM 36.0 °F 31.1 °F 32.0 °F 86% 29.86 in 4.0 mi ENE 5.8 mph - N/A   Mostly Cloudy
4:35 AM 36.1 °F 29.9 °F 32.0 °F 85% 29.86 in 4.0 mi East 8.1 mph - N/A   Mostly Cloudy
4:55 AM 36.1 °F 30.6 °F 32.0 °F 85% 29.85 in 2.5 mi East 6.9 mph - N/A   Overcast
5:15 AM 36.1 °F 29.9 °F 32.0 °F 85% 29.84 in 2.0 mi East 8.1 mph - N/A   Overcast
5:35 AM 36.5 °F 30.3 °F 32.0 °F 84% 29.83 in 2.5 mi East 8.1 mph - N/A   Haze
5:55 AM 36.7 °F 32.0 °F 32.0 °F 83% 29.84 in 2.5 mi East 5.8 mph - N/A   Haze
6:15 AM 36.5 °F 31.8 °F 32.0 °F 84% 29.83 in 2.5 mi East 5.8 mph - N/A   Haze
6:35 AM 36.5 °F 31.8 °F 32.0 °F 84% 29.83 in 5.0 mi East 5.8 mph - N/A   Haze
6:55 AM 37.0 °F 34.5 °F 32.0 °F 82% 29.83 in 5.0 mi East 3.5 mph - N/A   Haze
7:15 AM 36.7 °F 32.9 °F 32.2 °F 84% 29.83 in 4.0 mi East 4.6 mph - N/A   Haze
7:35 AM 37.0 °F 34.5 °F 32.4 °F 83% 29.83 in 4.0 mi ESE 3.5 mph - N/A   Haze
7:55 AM 37.6 °F 34.0 °F 32.9 °F 83% 29.82 in 3.0 mi East 4.6 mph - N/A   Haze
8:15 AM 38.3 °F 33.2 °F 32.9 °F 81% 29.82 in 2.5 mi ESE 6.9 mph - N/A   Haze
8:35 AM 39.4 °F 34.5 °F 33.8 °F 80% 29.82 in 5.0 mi SE 6.9 mph - N/A   Haze
8:55 AM 39.7 °F 33.7 °F 34.2 °F 80% 29.81 in 7.0 mi SE 9.2 mph - N/A   Scattered Clouds
9:15 AM 41.0 °F 35.8 °F 35.1 °F 79% 29.81 in 7.0 mi SE 8.1 mph - N/A   Scattered Clouds
9:35 AM 41.7 °F 37.3 °F 35.8 °F 79% 29.81 in 7.0 mi ESE 6.9 mph - N/A   Mostly Cloudy
9:55 AM 42.8 °F 40.1 °F 36.5 °F 78% 29.81 in 7.0 mi ESE 4.6 mph - N/A   Mostly Cloudy
10:15 AM 43.3 °F 41.7 °F 36.7 °F 77% 29.81 in 7.0 mi SE 3.5 mph - N/A   Mostly Cloudy
10:35 AM 43.9 °F 42.3 °F 36.9 °F 76% 29.80 in 10.0 mi ESE 3.5 mph - N/A   Mostly Cloudy
10:55 AM 45.1 °F - 37.6 °F 75% 29.79 in 10.0 mi Calm Calm - N/A   Scattered Clouds
11:15 AM 46.0 °F 43.1 °F 38.3 °F 74% 29.78 in 10.0 mi ESE 5.8 mph - N/A   Scattered Clouds
11:35 AM 46.8 °F - 39.0 °F 74% 29.77 in 10.0 mi SE 6.9 mph - N/A   Mostly Cloudy
11:55 AM 47.5 °F - 39.6 °F 74% 29.75 in 10.0 mi ESE 6.9 mph - N/A   Mostly Cloudy
12:15 PM 48.4 °F - 40.1 °F 73% 29.74 in 10.0 mi ESE 6.9 mph - N/A   Scattered Clouds
12:35 PM 50.0 °F - 40.8 °F 71% 29.73 in 10.0 mi ESE 8.1 mph - N/A   Mostly Cloudy
12:55 PM 50.2 °F - 41.2 °F 71% 29.73 in 10.0 mi ESE 6.9 mph - N/A   Scattered Clouds
1:15 PM 50.5 °F - 41.7 °F 72% 29.72 in 10.0 mi SE 6.9 mph - N/A   Scattered Clouds
1:35 PM 50.9 °F - 42.3 °F 72% 29.72 in 10.0 mi SE 5.8 mph - N/A   Mostly Cloudy
1:55 PM 50.5 °F - 42.6 °F 74% 29.72 in 10.0 mi SSE 6.9 mph - N/A   Mostly Cloudy
2:15 PM 50.9 °F - 43.2 °F 75% 29.71 in 10.0 mi SSE 8.1 mph - N/A   Scattered Clouds
2:35 PM 51.4 °F - 43.3 °F 74% 29.71 in 10.0 mi SE 8.1 mph - N/A   Mostly Cloudy
2:55 PM 51.4 °F - 43.2 °F 73% 29.70 in 10.0 mi SE 8.1 mph - N/A   Mostly Cloudy
3:15 PM 51.8 °F - 43.5 °F 73% 29.70 in 10.0 mi SE 9.2 mph - N/A   Mostly Cloudy
3:35 PM 51.1 °F - 43.3 °F 75% 29.70 in 10.0 mi SSE 5.8 mph - N/A   Scattered Clouds
3:55 PM 50.4 °F - 43.3 °F 77% 29.70 in 7.0 mi SSE 5.8 mph - N/A   Clear
4:15 PM 48.2 °F - 42.4 °F 80% 29.71 in 7.0 mi ESE 4.6 mph - N/A   Clear
4:35 PM 46.9 °F - 42.3 °F 84% 29.70 in 7.0 mi SE 6.9 mph - N/A   Scattered Clouds
4:55 PM 46.6 °F - 42.3 °F 85% 29.71 in 7.0 mi SE 4.6 mph - N/A   Clear
5:15 PM 45.3 °F 42.3 °F 41.9 °F 88% 29.71 in 7.0 mi SE 5.8 mph - N/A   Clear
5:35 PM 43.3 °F 40.7 °F 40.6 °F 90% 29.71 in 7.0 mi ESE 4.6 mph - N/A   Clear
5:55 PM 42.6 °F 39.9 °F 40.5 °F 92% 29.71 in 7.0 mi ESE 4.6 mph - N/A   Clear
6:15 PM 43.5 °F 40.1 °F 41.4 °F 92% 29.71 in 7.0 mi ESE 5.8 mph - N/A   Clear
6:35 PM 42.3 °F 37.9 °F 40.8 °F 95% 29.70 in 7.0 mi ESE 6.9 mph - N/A   Clear
6:55 PM 43.0 °F 39.5 °F 41.2 °F 93% 29.72 in 7.0 mi SE 5.8 mph - N/A   Clear
7:15 PM 42.1 °F 38.4 °F 40.8 °F 95% 29.71 in 7.0 mi SE 5.8 mph - N/A   Clear
7:35 PM 43.3 °F 39.2 °F 41.5 °F 93% 29.71 in 7.0 mi SE 6.9 mph - N/A   Clear
7:55 PM 42.8 °F 38.6 °F 41.5 °F 95% 29.71 in 5.0 mi SE 6.9 mph - N/A   Clear
8:15 PM 42.8 °F 38.0 °F 41.9 °F 97% 29.70 in 5.0 mi SE 8.1 mph - N/A   Clear
8:35 PM 42.8 °F 38.0 °F 41.5 °F 95% 29.70 in 5.0 mi SE 8.1 mph - N/A   Clear
8:55 PM 41.9 °F 37.5 °F 41.0 °F 97% 29.70 in 5.0 mi SE 6.9 mph - N/A   Clear
9:15 PM 42.3 °F 37.3 °F 41.4 °F 97% 29.70 in 5.0 mi SE 8.1 mph - N/A   Clear
9:35 PM 42.3 °F 37.3 °F 41.4 °F 97% 29.70 in 5.0 mi SE 8.1 mph - N/A   Clear
9:55 PM 42.1 °F 37.7 °F 41.2 °F 97% 29.70 in 4.0 mi SSE 6.9 mph - N/A   Clear
10:15 PM 42.4 °F 38.1 °F 41.7 °F 97% 29.70 in 4.0 mi SSE 6.9 mph - N/A   Clear
10:35 PM 42.3 °F 37.3 °F 41.5 °F 97% 29.69 in 3.0 mi SSE 8.1 mph - N/A   Clear
10:55 PM 44.1 °F 39.0 °F 43.2 °F 97% 29.69 in 4.0 mi SSE 9.2 mph - N/A   Clear
11:15 PM 43.7 °F 40.3 °F 43.0 °F 97% 29.70 in 3.0 mi SSE 5.8 mph - N/A   Clear
11:35 PM 40.5 °F 35.8 °F 40.3 °F 99% 29.70 in 1.5 mi South 6.9 mph - N/A   Mist
11:55 PM 39.6 °F 35.4 °F 39.4 °F 99% 29.70 in 0.5 mi SSE 5.8 mph - N/A Fog Fog